Terminal Aerodrome Forecast
Issued by NWS

Current Version | Previous Version | Text Only | Print | Product List | Glossary On
Versions: 1 2 3 4 5 6 7 8 9 10 11 12 13 14 15 16 17 18 19 20 21 22 23 24 25 26 27 28 29 30 31 32 33 34 35 36 37 38
000 FTUS42 KRAH 211733 TAFRWI TAF KRWI 211733Z 2118/2218 24008KT P6SM SCT050 FM220100 30009G17KT P6SM BKN060 FM220500 30010KT P6SM SKC FM221600 32012G20KT P6SM BKN035=

USA.gov is the U.S. government's official web portal to all federal, state and local government web resources and services.